SCP
0 0 0 0 0 0 0 0 0 0 0 0 0 0 0 0 0 0 0 0 0 0 0 0 0 0 0 0 0 0 0 0 0 0 0 0 0 0 0 0 0 0 0
0 0 0 0 0 0 0 0 0 0 0 0 0 0 0 0 0 0 0 0 0 0 0 0 0 0 0 0 0 0 0 0 0 0 0 0 0 0 0 0 0 0 0
0 0 0 0 0 0 0 0 0 0 0 0 0 0 0 0 0 0 0 0 0 0 0 0 0 0 0 0 0 0 0 0 0 0 0 0 0 0 0 0 0 0 0
0 0 0 0 0 0 0 0 0 0 0 0 0 0 0 0 0 0 0 0 0 0 0 0 0 0 0 0 0 0 0 0 0 0 0 0 0 0 0 0 0 0 0
0 0 0 0 0 0 0 0 0 0 0 0 0 0 0 0 0 0 0 0 0 0 0 0 0 0 0 0 0 0 0 0 0 0 0 0 0 0 0 0 0 0 0
0 0 0 0 0 0 0 0 0 0 0 0 0 0 0 0 0 0 0 0 0 0 0 0 0 0 0 0 0 0 0 0 0 0 0 0 0 0 0 0 0 0 0
0 0 0 0 0 0 0 0 0 0 0 0 0 0 0 0 0 0 0 0 0 0 0 0 0 0 0 0 0 0 0 0 0 0 0 0 0 0 0 0 0 0 0
0 0 0 0 0 0 0 0 0 0 0 0 0 0 0 0 0 0 0 0 0 0 0 0 0 0 0 0 0 0 0 0 0 0 0 0 0 0 0 0 0 0 0
0 0 0 0 0 0 0 0 0 0 0 0 0 0 0 0 0 0 0 0 0 0 0 0 0 0 0 0 0 0 0 0 0 0 0 0 0 0 0 0 0 0 0
0 0 0 0 0 0 0 0 0 0 0 0 0 0 0 0 0 0 0 0 0 0 0 0 0 0 0 0 0 0 0 0 0 0 0 0 0 0 0 0 0 0 0
0 0 0 0 0 0 0 0 0 0 0 0 0 0 0 0 0 0 0 0 0 -0 0 0 0 0 0 0 0 0 0 0 0 0 0 0 0 0 0 0 0 0 0
0 0 0 0 0 0 0 0 0 0 0 0 0 0 0 0 0 0 0 -0 -0 0 0 0 0 0 -0 -0 0 0 -0 0 0 0 0 0 0 0 0 0 0 0 0
0 0 0 0 0 0 0 0 0 0 0 0 0 0 0 0 0 0 -0 0 -0 0 0 -0 -0 -0 -0 0 0 0 0 0 0 0 0 0 -0 -0 -0 -0 0 0 0
0 0 0 0 0 0 0 0 0 0 0 0 0 0 0 0 0 0 0 0 -0 -0 -0 0 -0 0 0 0 0 0 0 0 0 0 0 0 -0 -0 0 0 0 0 0
0 0 0 0 0 0 0 -0 -0 0 0 0 0 0 0 -0 -0 -0 -0 -0 -0 -0 -0 0 0 0 0 0 0 0 0 0 0 0 0 -0 -0 -0 -0 0 0 0 0
0 0 0 0 0 0 0 -0 -0 0 0 0 0 0 -0 -0 -0 -0 -0 -0 0 0 0 0 0 0 0 0 0 0 0 0 0 0 0 0 -0 -0 -0 0 0 0 0
0 0 0 0 0 -0 -0 -0 -0 -0 -0 -0 -0 -0 -0 -0 -0 -0 -0 0 0 0 0 0 -0 0 0 0 0 0 0 0 0 0 0 0 -0 -0 0 0 0 0 0
-0 -0 0 -0 0 -0 -0 -0 0 0 -0 -0 -0 -0 -0 -0 -0 -0 -0 0 0 0 -0 -0 -0 0 0 0 0 0 0 0 0 0 0 0 -0 0 0 0 0 0 0
-0 0 -0 0 -0 -0 -0 -0 0 0 -0 -0 -0 -0 -0 -0 -0 -0 -0 -0 0 0 -0 0 0 0 0 0 0 0 0 0 0 0 0 0 0 0 0 0 0 0 0
-0 0 -0 0 -0 -0 -0 -0 -0 0 -0 -0 -0 -0 -0 -0 -0 -0 -0 -0 -0 0 -0 0 0 0 0 0 0 0 0 0 0 0 0 0 0 0 0 0 0 0 0
-0 -0 -0 0 -0 -0 -0 -0 -0 -0 -0 -0 -0 -0 -0 -0 -0 -0 -0 -0 -0 -0 -0 -0 0 0 0 0 0 0 0 0 0 0 0 0 0 0 0 -0 -0 0 0
-0 -0 0 0 -0 -0 -0 -0 -0 -0 -0 -0 -0 -0 -0 0 0 -0 -0 -0 -0 -0 -0 -0 -0 -0 0 0 0 0 0 0 0 0 0 0 0 0 0 0 -0 0 0
-0 -0 0 0 -0 -0 -0 -0 -0 -0 -0 -0 -0 -0 0 0 0 0 -0 -0 -0 -0 -0 -0 -0 -0 -0 -0 -0 0 0 0 0 0 0 0 0 0 0 0 -0 0 0
-0 -0 0 0 0 0 0 -0 -0 -0 -0 -0 -0 -0 0 0 0 0 0 0 -0 -0 -0 -0 -0 -0 -0 -0 -0 -0 -0 -0 0 0 0 0 0 0 0 0 0 0 0
0 0 -0 0 0 0 0 0 0 -0 -0 -0 -0 -0 0 0 0 0 0 0 0 0 0 -0 -0 -0 -0 -0 -0 -0 -0 -0 -0 -0 0 0 0 0 0 0 0 -0 -0
-0 -0 -0 -0 -0 0 0 0 0 0 0 0 0 -0 -0 0 0 0 0 0 0 0 0 0 -0 -0 -0 -0 -0 -0 -0 -0 -0 -0 -0 -0 -0 -0 0 -0 -0 -0 -0
Wind_Speed_500mb
23 19 14 11 9 12 15 16 18 22 26 30 36 41 46 48 49 50 50 50 47 44 43 45 48 50 53 54 56 61 67 73 89 91 77 76 78 86 85 72 62 65 64
19 11 7 2 3 9 13 18 24 29 33 38 40 42 46 49 53 55 50 43 42 44 47 48 51 56 62 67 71 78 83 86 91 98 79 67 67 69 76 77 62 59 55
11 4 3 9 15 20 23 27 33 37 40 44 48 51 53 54 50 40 36 38 41 47 53 59 66 68 74 78 81 86 84 87 93 85 82 71 65 64 68 72 73 59 58
4 9 13 17 20 25 29 33 37 39 41 44 47 50 52 53 47 39 41 47 55 60 63 67 73 77 80 79 75 70 76 83 76 75 76 67 60 56 61 67 78 66 59
16 18 19 24 29 33 36 38 40 43 46 51 56 59 59 56 43 43 49 58 65 67 63 66 70 70 68 63 68 68 68 68 71 74 77 75 61 55 61 63 67 66 58
22 23 28 34 39 43 46 49 50 51 54 57 57 56 53 46 38 45 52 58 50 56 68 70 65 55 54 58 63 64 65 73 79 78 75 70 70 64 59 62 61 64 59
27 30 36 40 45 49 51 50 49 50 50 50 42 38 39 38 39 44 46 48 57 68 65 58 57 62 64 66 66 61 65 73 75 76 83 82 77 70 67 66 60 60 63
35 38 42 45 47 46 45 46 48 48 47 40 34 33 34 36 39 41 44 52 57 53 53 57 65 69 69 65 63 74 72 72 75 73 78 80 77 72 63 62 64 65 67
36 38 37 36 36 37 40 42 46 48 44 33 30 32 33 34 34 40 43 46 47 54 58 61 69 63 57 50 56 67 72 69 70 69 67 65 67 66 62 55 56 51 53
33 35 33 34 35 35 35 41 42 39 34 30 28 29 34 40 40 40 36 35 49 60 61 60 56 57 61 60 69 76 83 84 60 60 65 65 64 58 60 65 63 66 57
33 35 34 33 34 32 33 37 38 34 31 30 35 37 33 36 34 29 26 36 48 56 57 60 63 65 68 65 63 66 72 58 53 52 52 51 57 59 55 51 62 66 65
40 32 31 30 30 29 30 33 30 29 31 32 34 37 37 29 25 27 32 34 39 48 58 65 68 69 71 72 63 56 51 51 44 49 58 56 57 48 47 40 53 64 58
43 34 29 27 24 24 27 28 28 25 27 34 38 41 37 31 26 31 32 27 32 47 53 61 71 71 58 54 51 48 47 44 40 58 63 55 41 38 24 39 45 46 49
41 32 27 26 26 27 27 28 26 26 29 30 36 40 41 38 44 37 34 37 43 52 64 67 61 61 55 64 60 63 60 43 26 29 38 34 18 29 45 32 31 34 41
41 30 26 29 31 30 27 22 20 20 20 25 28 39 44 46 47 46 39 40 45 56 53 66 71 64 63 66 67 66 73 41 41 13 15 11 15 35 40 39 35 36 46
48 33 28 31 33 34 30 24 18 14 13 13 25 37 31 32 34 32 29 27 43 52 58 63 68 59 74 65 69 76 53 52 34 16 3 14 15 34 32 37 39 38 37
54 40 30 30 36 37 33 32 23 16 15 27 30 24 19 23 21 20 19 30 49 56 65 63 52 50 59 66 73 73 62 57 48 41 26 18 40 39 39 44 40 38 43
50 45 32 29 32 35 35 34 36 40 40 44 35 29 21 20 23 26 26 45 48 48 50 49 58 58 60 69 76 69 48 57 70 56 44 57 53 38 42 40 44 52 54
46 48 39 31 32 33 35 37 42 45 48 52 46 41 34 29 26 27 41 55 56 55 60 65 61 82 83 77 84 93 50 49 56 59 65 49 44 35 36 41 50 59 46
37 42 39 37 39 39 36 37 45 49 49 52 56 50 44 38 41 45 50 52 46 50 58 60 70 80 84 86 90 93 94 44 59 60 61 57 51 48 49 56 57 57 51
31 37 29 33 39 43 43 47 45 45 47 51 54 51 48 48 52 51 52 52 48 47 54 55 68 74 82 86 84 90 85 79 57 58 54 50 45 72 67 66 62 59 48
24 27 27 28 30 34 42 45 44 46 48 50 48 50 49 51 46 48 50 50 43 43 48 54 61 68 74 80 83 78 85 78 63 40 41 46 41 42 41 42 38 29 29
28 28 28 26 30 28 34 38 41 42 45 48 51 49 50 52 51 47 43 40 39 41 41 47 53 60 62 67 71 71 69 75 71 61 50 38 32 32 30 33 30 29 24
35 36 38 33 30 32 34 36 39 41 42 44 47 48 47 48 49 47 45 40 37 30 27 41 46 53 55 53 57 59 57 58 61 61 54 45 41 38 36 32 31 28 24
37 43 43 41 43 39 32 34 38 40 43 46 45 45 45 46 46 46 44 43 42 39 39 37 40 44 47 44 43 45 47 44 46 50 55 53 46 37 35 38 36 32 27
36 40 44 44 41 44 42 39 40 42 42 44 45 43 45 45 45 45 46 45 43 38 30 31 36 37 37 37 35 32 31 33 34 34 38 38 39 39 36 33 29 26 19
Wind_Direction_500mb
121 126 142 160 181 213 230 250 266 275 281 285 289 292 294 295 296 297 297 298 296 297 295 289 290 291 289 291 292 289 287 287 292 293 291 290 291 293 296 293 280 275 270
118 121 119 106 299 293 293 294 293 292 291 292 295 297 300 300 299 295 295 292 291 290 290 293 289 287 289 289 288 288 289 289 293 294 292 289 291 294 294 297 289 271 268
136 121 307 297 294 292 291 291 291 293 295 296 296 298 299 301 302 294 291 290 287 285 286 287 288 291 292 292 291 291 290 292 293 287 288 291 289 291 292 287 285 283 269
317 311 304 300 294 292 293 292 291 291 293 294 294 295 299 302 300 292 291 289 287 286 286 288 290 293 294 294 292 290 289 290 289 287 285 287 288 287 288 292 296 290 276
302 303 300 296 295 294 292 290 291 291 291 291 291 290 293 295 296 296 290 289 289 288 285 290 295 296 295 292 293 288 286 287 288 284 283 288 286 282 287 292 289 292 280
299 295 293 292 293 293 294 296 296 295 293 292 292 292 289 285 281 283 285 289 290 291 294 300 301 301 301 303 299 294 290 291 289 285 280 277 280 278 280 283 283 285 289
294 295 292 290 292 294 296 298 298 299 299 299 298 297 291 282 283 284 291 294 293 296 300 303 304 303 304 302 301 300 296 290 284 282 278 277 275 271 277 273 273 273 276
302 299 295 297 298 299 301 303 305 305 306 310 306 307 300 293 293 300 305 303 302 304 305 302 302 306 310 310 304 294 291 288 285 278 272 273 272 275 271 270 271 270 271
311 308 311 312 310 311 313 320 323 320 316 311 309 308 311 313 320 316 312 306 305 305 303 306 313 317 322 316 305 301 301 298 298 290 284 277 271 268 265 264 261 260 263
340 333 327 324 322 321 327 333 327 325 324 321 319 322 318 316 322 321 314 305 300 305 312 319 324 326 322 316 311 308 304 309 306 296 288 281 276 264 253 246 246 247 252
346 333 330 330 330 328 329 328 325 322 322 324 324 323 328 327 326 332 325 302 306 310 315 319 324 327 328 326 322 312 304 297 297 291 289 284 282 278 267 242 232 235 236
354 342 334 332 334 333 333 330 329 330 335 329 328 336 339 339 345 335 316 304 308 310 320 328 333 335 325 319 314 314 316 292 285 292 289 288 279 271 249 241 220 222 231
358 355 350 349 350 346 345 340 342 344 337 341 351 351 347 352 350 332 318 327 332 329 331 336 334 331 327 329 344 337 321 316 297 282 299 299 281 261 239 218 210 219 230
9 11 13 15 16 8 360 352 348 346 354 4 358 351 351 358 355 353 342 348 354 354 348 341 346 341 346 346 345 346 332 315 282 333 315 304 241 212 199 197 204 194 191
21 22 27 26 18 15 26 4 359 9 19 7 347 346 349 354 354 352 360 3 4 356 357 1 359 3 4 353 355 352 1 0 335 306 343 325 181 187 187 185 185 186 182
25 24 20 21 21 21 27 50 34 50 37 352 348 346 352 352 353 359 19 16 12 22 28 20 18 19 1 357 358 354 2 4 352 341 192 88 145 162 170 178 176 176 168
23 23 19 21 27 27 29 32 47 66 33 24 16 11 8 6 13 29 34 23 42 46 50 42 39 20 8 8 8 17 20 5 25 21 343 246 156 133 147 160 167 173 166
22 26 25 29 33 35 37 38 38 36 28 37 44 50 45 44 47 39 34 43 42 28 49 38 28 24 27 29 28 30 45 23 48 61 75 138 143 133 138 139 158 162 162
20 27 32 38 44 45 43 43 44 42 36 34 48 63 63 65 67 56 53 55 58 48 44 42 37 39 40 40 38 36 62 46 43 74 88 111 140 140 132 138 142 141 130
18 22 31 40 49 49 48 46 45 45 42 40 44 45 56 56 64 61 60 61 59 62 41 38 37 43 42 42 38 40 35 66 54 69 92 106 118 134 128 131 141 149 140
10 17 30 41 48 53 50 51 48 47 48 49 48 50 55 57 56 60 60 57 59 60 53 38 40 40 41 42 41 41 44 47 75 73 71 83 110 132 125 121 118 125 137
6 16 31 42 45 52 54 50 51 51 49 50 49 50 51 59 53 53 57 62 50 44 48 42 39 40 40 41 41 44 44 48 50 63 79 108 100 99 116 126 128 131 120
39 46 47 50 46 50 54 51 49 49 50 47 47 45 46 46 50 48 44 44 50 34 26 35 36 39 39 43 45 42 45 45 47 51 69 75 101 111 123 123 116 110 109
45 47 48 53 51 49 50 50 52 49 46 44 43 43 44 41 39 42 43 38 42 46 15 23 31 35 37 39 46 47 49 51 52 53 54 62 68 67 71 82 89 94 92
42 44 44 45 46 45 48 49 48 47 44 42 40 38 39 39 37 36 34 35 33 30 27 21 22 29 34 38 41 51 53 57 56 59 63 61 55 63 59 60 67 68 64
40 38 37 39 41 39 39 42 42 40 38 37 35 33 33 33 33 30 31 28 25 31 25 18 14 22 21 28 37 35 47 55 52 51 55 63 65 64 51 42 39 32 30
Wind_Speed_850mb
23 19 14 11 9 12 15 16 18 22 26 30 36 41 46 48 49 50 50 50 47 44 43 45 48 50 53 54 56 61 67 73 89 91 77 76 78 86 85 72 62 65 64
19 11 7 2 3 9 13 18 24 29 33 38 40 42 46 49 53 55 50 43 42 44 47 48 51 56 62 67 71 78 83 86 91 98 79 67 67 69 76 77 62 59 55
11 4 3 9 15 20 23 27 33 37 40 44 48 51 53 54 50 40 36 38 41 47 53 59 66 68 74 78 81 86 84 87 93 85 82 71 65 64 68 72 73 59 58
4 9 13 17 20 25 29 33 37 39 41 44 47 50 52 53 47 39 41 47 55 60 63 67 73 77 80 79 75 70 76 83 76 75 76 67 60 56 61 67 78 66 59
16 18 19 24 29 33 36 38 40 43 46 51 56 59 59 56 43 43 49 58 65 67 63 66 70 70 68 63 68 68 68 68 71 74 77 75 61 55 61 63 67 66 58
22 23 28 34 39 43 46 49 50 51 54 57 57 56 53 46 38 45 52 58 50 56 68 70 65 55 54 58 63 64 65 73 79 78 75 70 70 64 59 62 61 64 59
27 30 36 40 45 49 51 50 49 50 50 50 42 38 39 38 39 44 46 48 57 68 65 58 57 62 64 66 66 61 65 73 75 76 83 82 77 70 67 66 60 60 63
35 38 42 45 47 46 45 46 48 48 47 40 34 33 34 36 39 41 44 52 57 53 53 57 65 69 69 65 63 74 72 72 75 73 78 80 77 72 63 62 64 65 67
36 38 37 36 36 37 40 42 46 48 44 33 30 32 33 34 34 40 43 46 47 54 58 61 69 63 57 50 56 67 72 69 70 69 67 65 67 66 62 55 56 51 53
33 35 33 34 35 35 35 41 42 39 34 30 28 29 34 40 40 40 36 35 49 60 61 60 56 57 61 60 69 76 83 84 60 60 65 65 64 58 60 65 63 66 57
33 35 34 33 34 32 33 37 38 34 31 30 35 37 33 36 34 29 26 36 48 56 57 60 63 65 68 65 63 66 72 58 53 52 52 51 57 59 55 51 62 66 65
40 32 31 30 30 29 30 33 30 29 31 32 34 37 37 29 25 27 32 34 39 48 58 65 68 69 71 72 63 56 51 51 44 49 58 56 57 48 47 40 53 64 58
43 34 29 27 24 24 27 28 28 25 27 34 38 41 37 31 26 31 32 27 32 47 53 61 71 71 58 54 51 48 47 44 40 58 63 55 41 38 24 39 45 46 49
41 32 27 26 26 27 27 28 26 26 29 30 36 40 41 38 44 37 34 37 43 52 64 67 61 61 55 64 60 63 60 43 26 29 38 34 18 29 45 32 31 34 41
41 30 26 29 31 30 27 22 20 20 20 25 28 39 44 46 47 46 39 40 45 56 53 66 71 64 63 66 67 66 73 41 41 13 15 11 15 35 40 39 35 36 46
48 33 28 31 33 34 30 24 18 14 13 13 25 37 31 32 34 32 29 27 43 52 58 63 68 59 74 65 69 76 53 52 34 16 3 14 15 34 32 37 39 38 37
54 40 30 30 36 37 33 32 23 16 15 27 30 24 19 23 21 20 19 30 49 56 65 63 52 50 59 66 73 73 62 57 48 41 26 18 40 39 39 44 40 38 43
50 45 32 29 32 35 35 34 36 40 40 44 35 29 21 20 23 26 26 45 48 48 50 49 58 58 60 69 76 69 48 57 70 56 44 57 53 38 42 40 44 52 54
46 48 39 31 32 33 35 37 42 45 48 52 46 41 34 29 26 27 41 55 56 55 60 65 61 82 83 77 84 93 50 49 56 59 65 49 44 35 36 41 50 59 46
37 42 39 37 39 39 36 37 45 49 49 52 56 50 44 38 41 45 50 52 46 50 58 60 70 80 84 86 90 93 94 44 59 60 61 57 51 48 49 56 57 57 51
31 37 29 33 39 43 43 47 45 45 47 51 54 51 48 48 52 51 52 52 48 47 54 55 68 74 82 86 84 90 85 79 57 58 54 50 45 72 67 66 62 59 48
24 27 27 28 30 34 42 45 44 46 48 50 48 50 49 51 46 48 50 50 43 43 48 54 61 68 74 80 83 78 85 78 63 40 41 46 41 42 41 42 38 29 29
28 28 28 26 30 28 34 38 41 42 45 48 51 49 50 52 51 47 43 40 39 41 41 47 53 60 62 67 71 71 69 75 71 61 50 38 32 32 30 33 30 29 24
35 36 38 33 30 32 34 36 39 41 42 44 47 48 47 48 49 47 45 40 37 30 27 41 46 53 55 53 57 59 57 58 61 61 54 45 41 38 36 32 31 28 24
37 43 43 41 43 39 32 34 38 40 43 46 45 45 45 46 46 46 44 43 42 39 39 37 40 44 47 44 43 45 47 44 46 50 55 53 46 37 35 38 36 32 27
36 40 44 44 41 44 42 39 40 42 42 44 45 43 45 45 45 45 46 45 43 38 30 31 36 37 37 37 35 32 31 33 34 34 38 38 39 39 36 33 29 26 19
Wind_Direction_850mb
121 126 142 160 181 213 230 250 266 275 281 285 289 292 294 295 296 297 297 298 296 297 295 289 290 291 289 291 292 289 287 287 292 293 291 290 291 293 296 293 280 275 270
118 121 119 106 299 293 293 294 293 292 291 292 295 297 300 300 299 295 295 292 291 290 290 293 289 287 289 289 288 288 289 289 293 294 292 289 291 294 294 297 289 271 268
136 121 307 297 294 292 291 291 291 293 295 296 296 298 299 301 302 294 291 290 287 285 286 287 288 291 292 292 291 291 290 292 293 287 288 291 289 291 292 287 285 283 269
317 311 304 300 294 292 293 292 291 291 293 294 294 295 299 302 300 292 291 289 287 286 286 288 290 293 294 294 292 290 289 290 289 287 285 287 288 287 288 292 296 290 276
302 303 300 296 295 294 292 290 291 291 291 291 291 290 293 295 296 296 290 289 289 288 285 290 295 296 295 292 293 288 286 287 288 284 283 288 286 282 287 292 289 292 280
299 295 293 292 293 293 294 296 296 295 293 292 292 292 289 285 281 283 285 289 290 291 294 300 301 301 301 303 299 294 290 291 289 285 280 277 280 278 280 283 283 285 289
294 295 292 290 292 294 296 298 298 299 299 299 298 297 291 282 283 284 291 294 293 296 300 303 304 303 304 302 301 300 296 290 284 282 278 277 275 271 277 273 273 273 276
302 299 295 297 298 299 301 303 305 305 306 310 306 307 300 293 293 300 305 303 302 304 305 302 302 306 310 310 304 294 291 288 285 278 272 273 272 275 271 270 271 270 271
311 308 311 312 310 311 313 320 323 320 316 311 309 308 311 313 320 316 312 306 305 305 303 306 313 317 322 316 305 301 301 298 298 290 284 277 271 268 265 264 261 260 263
340 333 327 324 322 321 327 333 327 325 324 321 319 322 318 316 322 321 314 305 300 305 312 319 324 326 322 316 311 308 304 309 306 296 288 281 276 264 253 246 246 247 252
346 333 330 330 330 328 329 328 325 322 322 324 324 323 328 327 326 332 325 302 306 310 315 319 324 327 328 326 322 312 304 297 297 291 289 284 282 278 267 242 232 235 236
354 342 334 332 334 333 333 330 329 330 335 329 328 336 339 339 345 335 316 304 308 310 320 328 333 335 325 319 314 314 316 292 285 292 289 288 279 271 249 241 220 222 231
358 355 350 349 350 346 345 340 342 344 337 341 351 351 347 352 350 332 318 327 332 329 331 336 334 331 327 329 344 337 321 316 297 282 299 299 281 261 239 218 210 219 230
9 11 13 15 16 8 360 352 348 346 354 4 358 351 351 358 355 353 342 348 354 354 348 341 346 341 346 346 345 346 332 315 282 333 315 304 241 212 199 197 204 194 191
21 22 27 26 18 15 26 4 359 9 19 7 347 346 349 354 354 352 360 3 4 356 357 1 359 3 4 353 355 352 1 0 335 306 343 325 181 187 187 185 185 186 182
25 24 20 21 21 21 27 50 34 50 37 352 348 346 352 352 353 359 19 16 12 22 28 20 18 19 1 357 358 354 2 4 352 341 192 88 145 162 170 178 176 176 168
23 23 19 21 27 27 29 32 47 66 33 24 16 11 8 6 13 29 34 23 42 46 50 42 39 20 8 8 8 17 20 5 25 21 343 246 156 133 147 160 167 173 166
22 26 25 29 33 35 37 38 38 36 28 37 44 50 45 44 47 39 34 43 42 28 49 38 28 24 27 29 28 30 45 23 48 61 75 138 143 133 138 139 158 162 162
20 27 32 38 44 45 43 43 44 42 36 34 48 63 63 65 67 56 53 55 58 48 44 42 37 39 40 40 38 36 62 46 43 74 88 111 140 140 132 138 142 141 130
18 22 31 40 49 49 48 46 45 45 42 40 44 45 56 56 64 61 60 61 59 62 41 38 37 43 42 42 38 40 35 66 54 69 92 106 118 134 128 131 141 149 140
10 17 30 41 48 53 50 51 48 47 48 49 48 50 55 57 56 60 60 57 59 60 53 38 40 40 41 42 41 41 44 47 75 73 71 83 110 132 125 121 118 125 137
6 16 31 42 45 52 54 50 51 51 49 50 49 50 51 59 53 53 57 62 50 44 48 42 39 40 40 41 41 44 44 48 50 63 79 108 100 99 116 126 128 131 120
39 46 47 50 46 50 54 51 49 49 50 47 47 45 46 46 50 48 44 44 50 34 26 35 36 39 39 43 45 42 45 45 47 51 69 75 101 111 123 123 116 110 109
45 47 48 53 51 49 50 50 52 49 46 44 43 43 44 41 39 42 43 38 42 46 15 23 31 35 37 39 46 47 49 51 52 53 54 62 68 67 71 82 89 94 92
42 44 44 45 46 45 48 49 48 47 44 42 40 38 39 39 37 36 34 35 33 30 27 21 22 29 34 38 41 51 53 57 56 59 63 61 55 63 59 60 67 68 64
40 38 37 39 41 39 39 42 42 40 38 37 35 33 33 33 33 30 31 28 25 31 25 18 14 22 21 28 37 35 47 55 52 51 55 63 65 64 51 42 39 32 30